Location: Iroquois Falls
(48.7680°N, 80.6732°W)
Time: 18:13:12
(UTC-04:00)

ISS - Visible Passes

Search period start: 07 July 2025 00:00
Search period end: 17 July 2025 00:00
Orbit: 414 x 417 km, 51.6° (Epoch: 07 July)

Date Brightness Start Highest point End Pass type
(mag) Time Alt. Az. Time Alt. Az. Time Alt. Az.
07 Jul -3.7 00:38:09 10° WSW 00:41:31 79° NNW 00:44:52 10° ENE visible
07 Jul -2.8 02:15:12 10° WNW 02:18:28 49° N 02:21:45 10° ENE visible
07 Jul -3.8 03:52:01 10° WNW 03:55:23 88° SSW 03:58:45 10° ESE visible
07 Jul -2.2 22:14:10 10° S 22:16:26 17° SE 22:18:42 10° E visible
07 Jul -3.9 23:49:24 10° WSW 23:52:44 78° SSE 23:56:05 10° ENE visible
08 Jul -2.9 01:26:20 10° W 01:29:36 50° N 01:32:54 10° ENE visible
08 Jul -3.5 03:03:14 10° WNW 03:06:36 71° NNE 03:09:56 10° ESE visible
08 Jul -3.0 04:40:08 10° W 04:43:09 31° SW 04:46:09 10° SSE visible
08 Jul -3.7 23:00:43 10° SW 23:03:59 54° SSE 23:07:16 10° ENE visible
09 Jul -3.0 00:37:27 10° W 00:40:44 55° N 00:44:03 10° ENE visible
09 Jul -3.2 02:14:26 10° WNW 02:17:45 58° N 02:21:05 10° E visible
09 Jul -3.6 03:51:14 10° WNW 03:54:27 46° SSW 03:57:41 10° SE visible
09 Jul -3.2 22:12:10 10° SW 22:15:16 36° SSE 22:18:22 10° E visible
09 Jul -3.4 23:48:33 10° W 23:51:53 65° NNW 23:55:13 10° ENE visible
10 Jul -2.9 01:25:35 10° WNW 01:28:52 51° N 01:32:10 10° E visible
10 Jul -3.9 03:02:22 10° WNW 03:05:42 68° SSW 03:09:02 10° ESE visible
10 Jul -2.0 04:40:01 10° WSW 04:41:56 15° SW 04:43:52 10° S visible
10 Jul -3.7 22:59:40 10° WSW 23:03:02 83° NNW 23:06:23 10° ENE visible
11 Jul -2.8 00:36:41 10° WNW 00:39:58 49° N 00:43:15 10° ENE visible
11 Jul -3.8 02:13:32 10° WNW 02:16:54 87° NNE 02:20:15 10° ESE visible
11 Jul -2.6 03:50:38 10° W 03:53:19 22° SW 03:55:59 10° SSE visible
11 Jul -3.8 22:10:52 10° WSW 22:14:12 73° SSE 22:17:33 10° ENE visible
11 Jul -2.9 23:47:47 10° W 23:51:03 51° N 23:54:20 10° ENE visible
12 Jul -3.5 01:24:41 10° WNW 01:28:02 68° NNE 01:30:11 20° E visible
12 Jul -2.1 03:01:33 10° W 03:02:55 20° W 03:02:55 20° W visible
12 Jul -3.1 22:58:49 10° W 23:02:08 56° N 23:05:26 10° ENE visible
13 Jul -3.1 00:35:49 10° WNW 00:39:07 56° N 00:41:41 16° E visible
13 Jul -2.5 02:12:36 10° WNW 02:14:29 29° W 02:14:29 29° W visible
13 Jul -3.4 22:09:52 10° W 22:13:12 68° NNW 22:16:33 10° ENE visible
13 Jul -2.9 23:46:54 10° WNW 23:50:11 50° N 23:53:28 10° E visible
14 Jul -3.6 01:23:41 10° WNW 01:26:34 60° W 01:26:34 60° W visible
14 Jul -2.8 22:57:56 10° WNW 23:01:13 49° N 23:04:29 10° ENE visible
15 Jul -3.8 00:34:47 10° WNW 00:38:09 82° NNE 00:38:51 53° E visible
15 Jul -2.9 22:08:57 10° W 22:12:14 51° N 22:15:31 10° ENE visible
15 Jul -3.4 23:45:53 10° WNW 23:49:13 65° NNE 23:51:14 22° E visible
16 Jul -1.9 01:22:43 10° WNW 01:24:04 20° W 01:24:04 20° W visible
16 Jul -3.1 22:56:57 10° WNW 23:00:15 55° N 23:03:33 10° E visible
